{"data":{"norad_id":65879,"epoch":"2026-05-24T18:10:12.975168Z","epoch_age_seconds":95410,"freshness":"FRESH","line1":"1 65879U 25223AB  26144.75709462  .00028052  00000+0  83806-3 0  9990","line2":"2 65879  53.1607 300.7228 0000947  77.3963 282.7145 15.34407565 35856","mean_motion":15.34407565,"eccentricity":9.47e-5,"inclination_deg":53.1607,"raan_deg":300.7228,"arg_perigee_deg":77.3963,"mean_anomaly_deg":282.7145,"bstar":0.00083806,"rev_number":3585,"period_min":93.847295389214,"perigee_km":462.03293008378,"apogee_km":463.32858096668,"semimajor_km":6840.8177555252,"source":"CELESTRAK","updated_at":"2026-05-25T13:38:20.977758Z"}}